SCP
0 0 0 0 0 0 0 0 0 0 0 0 0 0 0 0 -0 -0 -0 -0 -0 -0 -0 -0 -0 -0 -0 -0 -0 -0 -0 -0
0 0 0 0 0 0 0 0 0 0 0 0 0 1 0 0 0 0 0 0 0 0 0 0 -0 -0 0 -0 -0 -0 -0 -0
0 0 0 0 0 0 0 0 0 0 0 0 0 1 1 0 0 0 0 0 0 0 0 0 0 0 0 0 0 0 -0 -0
0 0 0 0 0 0 0 0 0 0 0 0 0 0 1 1 1 0 0 0 0 0 1 0 0 0 0 0 0 0 0 0
0 0 0 0 0 0 0 0 0 0 0 0 0 0 1 1 1 1 0 0 0 0 0 1 0 0 0 0 0 0 0 0
0 0 0 0 0 0 0 0 0 0 0 0 0 1 1 1 1 1 0 0 0 0 0 0 0 0 0 1 1 1 0 0
0 0 0 0 0 0 0 0 0 0 0 0 0 1 1 2 1 1 1 1 0 0 0 0 0 0 0 0 0 1 1 1
0 0 0 0 0 0 0 0 0 0 0 0 0 0 0 0 1 1 1 1 1 1 1 1 1 1 0 0 0 0 0 0
0 0 0 0 0 0 0 0 0 0 0 0 0 0 0 0 0 1 1 1 1 1 1 1 1 1 1 1 1 0 0 0
0 0 0 0 0 0 0 0 0 0 0 0 0 0 0 0 0 0 2 2 2 1 1 1 1 1 1 1 1 1 0 0
0 0 0 0 0 0 0 0 0 0 0 0 0 0 0 0 0 0 0 1 1 1 1 1 1 1 1 1 1 1 0 1
0 0 0 0 0 0 0 0 0 0 0 0 0 0 0 0 0 0 0 0 1 1 1 1 1 1 1 1 1 1 1 1
0 0 0 0 0 0 0 0 0 0 0 0 0 0 0 0 -0 0 0 0 0 1 1 1 1 1 1 1 1 1 1 1
0 0 0 0 0 0 0 0 0 0 0 0 0 0 0 0 -0 0 -0 0 0 0 0 0 1 1 1 1 1 1 1 1
0 0 0 0 0 0 0 0 -0 -0 -0 0 0 0 0 0 0 0 0 -0 -0 0 0 0 0 1 1 1 1 1 1 1
0 0 0 0 0 0 0 0 -0 -0 -0 -0 0 0 0 0 0 0 0 0 0 0 1 0 0 0 0 1 1 1 1 1
0 0 0 0 0 0 0 0 0 0 0 -0 -0 -0 -0 -0 -0 -0 0 0 0 1 1 1 1 0 -0 -0 -0 0 1 1
0 0 0 0 0 0 0 0 0 0 0 0 -0 -0 -0 -0 -0 0 0 0 0 1 1 1 1 1 1 1 0 0 1 0
0 0 0 0 -0 0 0 0 0 0 0 0 0 0 0 0 0 0 0 0 0 0 0 1 1 1 1 1 0 0 0 0
0 0 0 0 0 0 0 0 0 0 0 0 0 0 0 0 0 0 0 0 0 0 0 0 1 1 1 1 0 0 -0 -0
Wind_Speed_500mb
5 4 6 5 13 23 18 19 11 10 6 5 6 9 3 1 11 23 32 35 32 31 28 26 29 35 37 36 34 31 30 29
4 21 7 6 17 19 16 5 3 11 12 8 13 3 4 20 17 20 30 31 28 29 28 26 26 31 35 35 35 33 32 30
8 5 1 8 16 19 12 4 9 4 9 9 18 17 17 22 19 21 29 25 24 24 25 25 25 28 32 33 34 34 33 32
12 11 2 7 11 12 20 14 12 13 9 10 12 11 14 16 13 14 21 22 24 26 27 26 25 25 29 31 33 34 34 33
14 16 11 9 14 14 14 24 25 7 7 6 11 9 10 9 8 10 17 20 21 24 27 29 28 27 27 30 33 35 34 32
7 14 9 6 10 7 15 18 11 9 8 9 21 7 4 9 11 13 17 19 21 23 27 29 31 31 30 30 32 35 35 34
13 12 8 1 3 7 4 10 15 11 11 9 14 14 9 6 13 17 21 23 26 29 32 33 35 35 34 33 34 36 38 37
5 6 5 1 2 3 4 7 2 4 4 2 4 4 3 3 11 21 27 27 28 33 36 36 37 38 39 39 40 41 43 43
7 7 5 5 9 9 8 7 8 7 4 8 11 13 15 15 11 11 23 27 27 30 33 34 38 38 41 42 45 46 45 45
8 9 5 6 6 10 17 9 5 9 12 11 13 19 21 24 22 18 18 17 21 27 31 35 37 36 38 42 46 49 48 48
10 16 16 6 15 13 13 9 7 12 17 21 21 23 27 25 30 28 23 21 21 23 29 36 38 37 33 36 42 48 49 48
4 6 4 8 5 10 8 7 5 8 8 13 22 25 32 34 27 31 30 29 30 27 34 37 36 34 33 31 32 41 43 44
3 5 4 7 9 7 6 13 26 25 24 25 25 25 24 35 39 35 31 29 28 31 30 28 27 28 29 26 23 30 30 36
4 8 4 4 18 11 14 25 32 33 39 41 37 32 29 33 41 40 39 26 22 29 19 12 16 18 18 19 16 19 18 26
7 1 4 3 14 17 35 34 33 40 38 37 41 41 34 39 38 40 40 36 27 23 23 14 10 15 15 15 14 14 13 17
8 1 6 17 29 27 41 34 38 37 36 33 32 32 36 35 39 38 41 37 38 29 28 25 20 20 15 13 16 14 11 13
12 13 8 22 30 31 45 28 21 19 21 24 27 24 32 38 40 46 49 48 46 41 36 33 29 29 26 16 15 12 8 9
15 16 10 23 33 35 28 16 12 17 12 13 20 26 28 47 51 49 46 48 50 46 40 40 37 30 25 23 20 23 26 26
19 4 11 16 25 10 6 15 11 8 9 11 19 22 12 20 32 41 43 49 51 45 42 42 39 37 31 28 28 28 25 28
16 8 17 2 14 24 19 15 10 5 7 10 12 7 6 15 21 27 32 40 43 44 39 40 37 37 40 40 38 36 38 36
Wind_Direction_500mb
84 105 96 92 342 313 317 291 232 139 96 75 29 36 66 321 110 149 167 175 178 177 175 179 186 189 187 187 189 191 188 184
90 104 84 32 338 337 329 98 201 134 94 67 28 7 84 135 118 153 172 179 183 183 183 186 189 195 197 198 198 196 192 188
100 75 302 269 314 342 38 26 58 162 96 75 29 70 106 128 125 153 171 180 189 194 198 199 198 198 202 203 203 199 196 193
134 104 352 297 325 353 52 52 29 68 83 69 47 70 102 106 111 143 176 187 194 199 204 209 210 209 208 208 206 203 202 199
131 122 95 20 345 30 27 60 38 29 71 44 56 97 115 140 146 176 200 204 206 210 211 214 217 217 216 213 210 209 208 207
154 154 105 356 348 358 27 41 45 53 48 47 21 42 147 187 197 208 213 218 223 226 222 224 223 223 223 221 217 215 214 213
152 158 118 1 13 356 11 25 47 81 84 53 34 40 3 276 221 220 217 220 224 228 232 229 230 228 226 225 224 220 219 217
150 148 126 319 278 306 312 346 146 351 224 312 322 305 280 295 263 241 226 221 225 228 231 235 237 233 230 228 225 223 222 220
165 203 174 235 274 206 218 245 273 282 224 242 250 249 254 257 255 263 248 243 238 238 242 236 239 243 240 234 232 227 225 224
180 196 213 227 249 239 220 244 296 268 278 272 271 256 251 247 247 240 241 243 241 242 244 245 247 248 243 245 240 236 230 226
268 255 224 234 248 223 245 285 295 268 264 272 280 267 256 253 242 231 224 229 240 254 250 243 243 250 244 251 250 246 237 233
304 60 193 246 192 191 179 348 348 347 298 278 289 281 255 239 236 231 234 234 238 252 249 249 240 241 246 249 258 253 248 239
256 344 131 291 187 220 284 323 318 315 310 301 289 288 253 237 238 240 244 238 243 247 244 254 244 240 241 243 255 254 250 243
126 341 142 322 279 291 293 309 303 298 293 289 280 276 264 249 242 236 229 229 248 224 208 232 242 237 241 239 243 244 241 240
311 323 327 306 291 275 293 290 284 283 281 277 271 262 257 255 253 234 226 220 211 221 230 206 215 237 242 246 242 232 228 242
272 204 251 279 289 296 299 300 284 281 277 277 272 264 241 246 242 238 231 224 213 219 230 205 205 214 226 244 251 251 261 264
259 280 266 272 286 291 303 308 278 268 273 280 278 267 248 237 236 229 232 224 222 220 225 216 215 214 219 223 215 224 245 243
283 266 244 281 283 288 282 285 299 306 298 288 291 288 261 244 243 235 224 222 222 226 229 226 225 224 236 249 260 260 264 264
267 291 248 290 279 271 244 266 283 288 309 301 305 303 275 224 226 209 216 219 225 232 236 230 232 226 233 243 251 259 265 266
248 230 278 321 288 282 290 281 247 299 358 356 348 357 134 163 178 193 208 216 222 224 225 221 230 235 233 239 250 258 266 271
Wind_Speed_850mb
5 4 6 5 13 23 18 19 11 10 6 5 6 9 3 1 11 23 32 35 32 31 28 26 29 35 37 36 34 31 30 29
4 21 7 6 17 19 16 5 3 11 12 8 13 3 4 20 17 20 30 31 28 29 28 26 26 31 35 35 35 33 32 30
8 5 1 8 16 19 12 4 9 4 9 9 18 17 17 22 19 21 29 25 24 24 25 25 25 28 32 33 34 34 33 32
12 11 2 7 11 12 20 14 12 13 9 10 12 11 14 16 13 14 21 22 24 26 27 26 25 25 29 31 33 34 34 33
14 16 11 9 14 14 14 24 25 7 7 6 11 9 10 9 8 10 17 20 21 24 27 29 28 27 27 30 33 35 34 32
7 14 9 6 10 7 15 18 11 9 8 9 21 7 4 9 11 13 17 19 21 23 27 29 31 31 30 30 32 35 35 34
13 12 8 1 3 7 4 10 15 11 11 9 14 14 9 6 13 17 21 23 26 29 32 33 35 35 34 33 34 36 38 37
5 6 5 1 2 3 4 7 2 4 4 2 4 4 3 3 11 21 27 27 28 33 36 36 37 38 39 39 40 41 43 43
7 7 5 5 9 9 8 7 8 7 4 8 11 13 15 15 11 11 23 27 27 30 33 34 38 38 41 42 45 46 45 45
8 9 5 6 6 10 17 9 5 9 12 11 13 19 21 24 22 18 18 17 21 27 31 35 37 36 38 42 46 49 48 48
10 16 16 6 15 13 13 9 7 12 17 21 21 23 27 25 30 28 23 21 21 23 29 36 38 37 33 36 42 48 49 48
4 6 4 8 5 10 8 7 5 8 8 13 22 25 32 34 27 31 30 29 30 27 34 37 36 34 33 31 32 41 43 44
3 5 4 7 9 7 6 13 26 25 24 25 25 25 24 35 39 35 31 29 28 31 30 28 27 28 29 26 23 30 30 36
4 8 4 4 18 11 14 25 32 33 39 41 37 32 29 33 41 40 39 26 22 29 19 12 16 18 18 19 16 19 18 26
7 1 4 3 14 17 35 34 33 40 38 37 41 41 34 39 38 40 40 36 27 23 23 14 10 15 15 15 14 14 13 17
8 1 6 17 29 27 41 34 38 37 36 33 32 32 36 35 39 38 41 37 38 29 28 25 20 20 15 13 16 14 11 13
12 13 8 22 30 31 45 28 21 19 21 24 27 24 32 38 40 46 49 48 46 41 36 33 29 29 26 16 15 12 8 9
15 16 10 23 33 35 28 16 12 17 12 13 20 26 28 47 51 49 46 48 50 46 40 40 37 30 25 23 20 23 26 26
19 4 11 16 25 10 6 15 11 8 9 11 19 22 12 20 32 41 43 49 51 45 42 42 39 37 31 28 28 28 25 28
16 8 17 2 14 24 19 15 10 5 7 10 12 7 6 15 21 27 32 40 43 44 39 40 37 37 40 40 38 36 38 36
Wind_Direction_850mb
84 105 96 92 342 313 317 291 232 139 96 75 29 36 66 321 110 149 167 175 178 177 175 179 186 189 187 187 189 191 188 184
90 104 84 32 338 337 329 98 201 134 94 67 28 7 84 135 118 153 172 179 183 183 183 186 189 195 197 198 198 196 192 188
100 75 302 269 314 342 38 26 58 162 96 75 29 70 106 128 125 153 171 180 189 194 198 199 198 198 202 203 203 199 196 193
134 104 352 297 325 353 52 52 29 68 83 69 47 70 102 106 111 143 176 187 194 199 204 209 210 209 208 208 206 203 202 199
131 122 95 20 345 30 27 60 38 29 71 44 56 97 115 140 146 176 200 204 206 210 211 214 217 217 216 213 210 209 208 207
154 154 105 356 348 358 27 41 45 53 48 47 21 42 147 187 197 208 213 218 223 226 222 224 223 223 223 221 217 215 214 213
152 158 118 1 13 356 11 25 47 81 84 53 34 40 3 276 221 220 217 220 224 228 232 229 230 228 226 225 224 220 219 217
150 148 126 319 278 306 312 346 146 351 224 312 322 305 280 295 263 241 226 221 225 228 231 235 237 233 230 228 225 223 222 220
165 203 174 235 274 206 218 245 273 282 224 242 250 249 254 257 255 263 248 243 238 238 242 236 239 243 240 234 232 227 225 224
180 196 213 227 249 239 220 244 296 268 278 272 271 256 251 247 247 240 241 243 241 242 244 245 247 248 243 245 240 236 230 226
268 255 224 234 248 223 245 285 295 268 264 272 280 267 256 253 242 231 224 229 240 254 250 243 243 250 244 251 250 246 237 233
304 60 193 246 192 191 179 348 348 347 298 278 289 281 255 239 236 231 234 234 238 252 249 249 240 241 246 249 258 253 248 239
256 344 131 291 187 220 284 323 318 315 310 301 289 288 253 237 238 240 244 238 243 247 244 254 244 240 241 243 255 254 250 243
126 341 142 322 279 291 293 309 303 298 293 289 280 276 264 249 242 236 229 229 248 224 208 232 242 237 241 239 243 244 241 240
311 323 327 306 291 275 293 290 284 283 281 277 271 262 257 255 253 234 226 220 211 221 230 206 215 237 242 246 242 232 228 242
272 204 251 279 289 296 299 300 284 281 277 277 272 264 241 246 242 238 231 224 213 219 230 205 205 214 226 244 251 251 261 264
259 280 266 272 286 291 303 308 278 268 273 280 278 267 248 237 236 229 232 224 222 220 225 216 215 214 219 223 215 224 245 243
283 266 244 281 283 288 282 285 299 306 298 288 291 288 261 244 243 235 224 222 222 226 229 226 225 224 236 249 260 260 264 264
267 291 248 290 279 271 244 266 283 288 309 301 305 303 275 224 226 209 216 219 225 232 236 230 232 226 233 243 251 259 265 266
248 230 278 321 288 282 290 281 247 299 358 356 348 357 134 163 178 193 208 216 222 224 225 221 230 235 233 239 250 258 266 271